Change the Weather History Date:

Saturday, March 31, 2012

  Actual Average (KNSE) Record (KNSE)
Temperature  
Mean Temperature 74 °F -  
Max Temperature 82 °F 72 °F 84 °F (2012)
Min Temperature 66 °F 52 °F 32 °F (2003)
Cooling Degree Days 8    
Growing Degree Days 24 (Base 50)    
Moisture  
Dew Point 66 °F    
Average Humidity 85    
Maximum Humidity 100    
Minimum Humidity 58    
Precipitation  
Precipitation 0.35 in - - ()
Sea Level Pressure  
Sea Level Pressure 29.88 in    
Wind  
Wind Speed 2 mph (WSW)    
Max Wind Speed 7 mph    
Max Gust Speed -    
Visibility 9 miles    
Events Rain , Thunderstorm    
Averages and records for this station are not official NWS values.
T = Trace of Precipitation, MM = Missing Value Source: NWS Daily Summary

Daily Weather History Graph

Daily Weather History Graph

Search for Another Location

Airport or City:

Trip Planner

Search our weather history database for the weather conditions in past years. The results will help you decide how hot, cold, wet, or windy it might be!

Date:

Astronomy

Mar. 31, 2012 Rise Set
Actual Time 6:37 AM CDT 7:06 PM CDT
Civil Twilight 6:13 AM CDT 7:31 PM CDT
Nautical Twilight 5:45 AM CDT 7:59 PM CDT
Astronomical Twilight 5:16 AM CDT 8:28 PM CDT
Moon 12:59 PM CDT (3/31) 2:08 AM CDT (3/31)
Length of Visible Light 13h 17m
Length of Day
12h 29m
First Quarter, 59% of the Moon is Illuminated
Mar 31
First Quarter
Apr 6
Full
Apr 13
Last Quarter
Apr 21
New
Apr 29
First Quarter

Hourly Weather History & Observations

Time (CDT) Temp. Heat Index Dew Point Humidity Pressure Visibility Wind Dir Wind Speed Gust Speed Precip Events Conditions
12:56 AM 71.1 °F - 68.0 °F 90% 29.87 in 10.0 mi Calm Calm - N/A Thunderstorm Thunderstorm
1:27 AM 71.6 °F - 68.0 °F 88% 29.90 in 10.0 mi Calm Calm - N/A Thunderstorm Thunderstorm
1:56 AM 70.0 °F - 68.0 °F 93% 29.85 in 10.0 mi South 4.6 mph - 0.00 in Rain Light Rain
2:13 AM 69.8 °F - 69.8 °F 100% 29.90 in 10.0 mi Calm Calm - N/A   Overcast
2:23 AM 69.8 °F - 69.8 °F 100% 29.90 in 10.0 mi Calm Calm - N/A Thunderstorm Thunderstorm
2:42 AM 69.8 °F - 68.0 °F 94% 29.90 in 7.0 mi Calm Calm - 0.02 in Rain , Thunderstorm Light Thunderstorms and Rain
2:53 AM 66.2 °F - 64.4 °F 94% 29.89 in 2.5 mi North 4.6 mph - 0.19 in Rain , Thunderstorm Heavy Thunderstorms and Rain
2:54 AM 66.9 °F - 64.0 °F 90% 29.86 in 2.5 mi North 3.5 mph - 0.20 in Rain , Thunderstorm Heavy Thunderstorms and Rain
2:57 AM 66.2 °F - 64.4 °F 94% 29.89 in 5.0 mi Calm Calm - 0.00 in Rain , Thunderstorm Thunderstorms and Rain
3:06 AM 66.2 °F - 64.4 °F 94% 29.89 in 10.0 mi Calm Calm - 0.00 in Rain , Thunderstorm Light Thunderstorms and Rain
3:46 AM 68.0 °F - 66.2 °F 94% 29.91 in 7.0 mi SSW 4.6 mph - 0.02 in Rain , Thunderstorm Thunderstorms and Rain
3:56 AM 68.0 °F - 66.0 °F 93% 29.87 in 8.0 mi SSE 5.8 mph - 0.03 in Rain , Thunderstorm Light Thunderstorms and Rain
3:59 AM 68.0 °F - 66.2 °F 94% 29.91 in 8.0 mi SSE 6.9 mph - 0.00 in Rain , Thunderstorm Light Thunderstorms and Rain
4:26 AM 66.2 °F - 66.2 °F 100% 29.91 in 6.0 mi Calm Calm - 0.05 in Rain Rain
4:56 AM 66.9 °F - 64.9 °F 93% 29.86 in 9.0 mi Calm Calm - 0.10 in Rain Light Rain
5:56 AM 66.9 °F - 64.9 °F 93% 29.85 in 10.0 mi Calm Calm - 0.01 in   Overcast
6:33 AM 66.2 °F - 64.4 °F 94% 29.90 in 6.0 mi East 4.6 mph - N/A   Overcast
6:56 AM 66.9 °F - 64.9 °F 93% 29.86 in 10.0 mi ENE 6.9 mph - N/A   Overcast
7:56 AM 66.9 °F - 64.9 °F 93% 29.89 in 10.0 mi Calm Calm - N/A   Overcast
8:56 AM 68.0 °F - 64.9 °F 90% 29.91 in 10.0 mi Calm Calm - N/A   Overcast
9:47 AM 68.0 °F - 64.4 °F 88% 29.97 in 10.0 mi WNW 4.6 mph - N/A   Overcast
9:56 AM 68.0 °F - 64.9 °F 90% 29.93 in 10.0 mi Variable 4.6 mph - N/A   Overcast
10:56 AM 70.0 °F - 64.9 °F 84% 29.91 in 10.0 mi Calm Calm - 0.01 in Rain Light Rain
11:56 AM 73.0 °F - 64.9 °F 76% 29.90 in 10.0 mi West 6.9 mph - 0.00 in   Scattered Clouds
12:56 PM 77.0 °F - 64.0 °F 64% 29.88 in 10.0 mi WNW 6.9 mph - N/A   Mostly Cloudy
1:34 PM 78.8 °F - 64.4 °F 61% 29.91 in 10.0 mi NW 6.9 mph - N/A   Mostly Cloudy
1:56 PM 75.9 °F - 64.9 °F 69% 29.86 in 10.0 mi NW 4.6 mph - N/A   Overcast
2:56 PM 81.0 °F 82.7 °F 64.9 °F 58% 29.83 in 10.0 mi Variable 4.6 mph - N/A   Mostly Cloudy
3:56 PM 79.0 °F - 64.0 °F 60% 29.82 in 10.0 mi Calm Calm - N/A   Partly Cloudy
4:56 PM 81.0 °F 83.0 °F 66.0 °F 60% 29.81 in 10.0 mi SW 5.8 mph - N/A   Partly Cloudy
5:56 PM 78.1 °F - 68.0 °F 71% 29.82 in 10.0 mi South 4.6 mph - N/A   Partly Cloudy
6:56 PM 77.0 °F - 64.9 °F 66% 29.82 in 10.0 mi Calm Calm - N/A   Clear
7:56 PM 73.9 °F - 66.0 °F 76% 29.84 in 10.0 mi Calm Calm - N/A   Clear
8:56 PM 72.0 °F - 66.0 °F 81% 29.87 in 10.0 mi Calm Calm - N/A   Clear
9:56 PM 71.1 °F - 66.9 °F 87% 29.89 in 10.0 mi Calm Calm - N/A   Clear
10:56 PM 68.0 °F - 66.0 °F 93% 29.90 in 9.0 mi SSW 3.5 mph - N/A   Clear
11:56 PM 69.1 °F - 66.9 °F 93% 29.91 in 6.0 mi Calm Calm - N/A   Clear